| time (UTC) | temp F | wind direction | speed MPH | gust MPH | rain 1hr in | rain 24hr in | rain mn in | humidity % | barometer mb |
| 20260906231555 | 67 | 260 | 0.0 | 2.0 | 0.00 | 0.00 | 0.00 | 93 | 1018.9 |
| 20260906231045 | 67 | 260 | 0.0 | 3.0 | 0.00 | 0.00 | 0.00 | 93 | 1018.9 |
| 20260906230546 | 67 | 260 | 0.0 | 3.0 | 0.00 | 0.00 | 0.00 | 93 | 1019.0 |
| 20260906230046 | 68 | 260 | 0.0 | 3.0 | 0.00 | 0.00 | 0.00 | 93 | 1019.1 |
| 20260906225542 | 68 | 260 | 0.0 | 0.0 | 0.00 | 0.00 | 0.00 | 93 | 1019.2 |
| 20260906225042 | 68 | 260 | 0.0 | 1.0 | 0.00 | 0.00 | 0.00 | 93 | 1019.2 |
| 20260906224542 | 68 | 260 | 0.0 | 1.0 | 0.00 | 0.00 | 0.00 | 93 | 1019.2 |
| 20260906224041 | 68 | 260 | 0.0 | 1.0 | 0.00 | 0.00 | 0.00 | 93 | 1019.2 |
| 20260906223541 | 68 | 260 | 0.0 | 1.0 | 0.00 | 0.00 | 0.00 | 93 | 1019.2 |
| 20260906223049 | 68 | 260 | 0.0 | 0.0 | 0.00 | 0.00 | 0.00 | 92 | 1019.3 |
| 20260906222540 | 67 | 260 | 0.0 | 1.0 | 0.00 | 0.00 | 0.00 | 92 | 1019.2 |
| 20260906222041 | 68 | 261 | 0.0 | 1.0 | 0.00 | 0.00 | 0.00 | 92 | 1019.1 |
| 20260906221540 | 68 | 261 | 0.0 | 3.0 | 0.00 | 0.00 | 0.00 | 92 | 1019.0 |
| 20260906221040 | 68 | 260 | 1.0 | 3.0 | 0.00 | 0.00 | 0.00 | 91 | 1018.9 |
| 20260906220540 | 68 | 260 | 2.0 | 3.0 | 0.00 | 0.00 | 0.00 | 91 | 1018.9 |
| 20260906220040 | 68 | 355 | 0.0 | 0.0 | 0.00 | 0.00 | 0.00 | 91 | 1018.9 |
| 20260906215539 | 68 | 355 | 0.0 | 0.0 | 0.00 | 0.00 | 0.00 | 91 | 1019.0 |
| 20260906215039 | 68 | 355 | 0.0 | 0.0 | 0.00 | 0.00 | 0.00 | 90 | 1019.1 |
| 20260906214539 | 68 | 355 | 0.0 | 0.0 | 0.00 | 0.00 | 0.00 | 90 | 1019.1 |
| 20260906214041 | 69 | 355 | 0.0 | 0.0 | 0.00 | 0.00 | 0.00 | 90 | 1019.2 |
| 20260906213538 | 69 | 355 | 0.0 | 0.0 | 0.00 | 0.00 | 0.00 | 90 | 1019.1 |
| 20260906213038 | 69 | 355 | 0.0 | 0.0 | 0.00 | 0.00 | 0.00 | 89 | 1019.2 |
| 20260906212539 | 69 | 355 | 0.0 | 0.0 | 0.00 | 0.00 | 0.00 | 89 | 1019.1 |
| 20260906212037 | 69 | 355 | 0.0 | 0.0 | 0.00 | 0.00 | 0.00 | 89 | 1019.2 |
| 20260906211537 | 69 | 355 | 0.0 | 0.0 | 0.00 | 0.00 | 0.00 | 88 | 1019.2 |
| 20260906211036 | 69 | 355 | 0.0 | 0.0 | 0.00 | 0.00 | 0.00 | 88 | 1019.0 |
| 20260906210536 | 69 | 355 | 0.0 | 0.0 | 0.00 | 0.00 | 0.00 | 88 | 1019.0 |
| 20260906210041 | 69 | 355 | 0.0 | 1.0 | 0.00 | 0.00 | 0.00 | 88 | 1018.9 |
| 20260906205537 | 70 | 355 | 0.0 | 3.0 | 0.00 | 0.00 | 0.00 | 87 | 1018.8 |
| 20260906205036 | 70 | 355 | 1.0 | 3.0 | 0.00 | 0.00 | 0.00 | 87 | 1018.8 |
| 20260906204536 | 70 | 355 | 0.0 | 3.0 | 0.00 | 0.00 | 0.00 | 87 | 1018.8 |
| 20260906204035 | 70 | 355 | 1.0 | 3.0 | 0.00 | 0.00 | 0.00 | 87 | 1018.7 |
| 20260906203535 | 70 | 355 | 0.0 | 3.0 | 0.00 | 0.00 | 0.00 | 86 | 1018.6 |
| 20260906203035 | 70 | 248 | 0.0 | 0.0 | 0.00 | 0.00 | 0.00 | 86 | 1018.7 |
| 20260906202534 | 70 | 248 | 0.0 | 0.0 | 0.00 | 0.00 | 0.00 | 86 | 1018.7 |
| 20260906202035 | 70 | 248 | 0.0 | 0.0 | 0.00 | 0.00 | 0.00 | 86 | 1018.7 |
| 20260906201548 | 70 | 248 | 0.0 | 0.0 | 0.00 | 0.00 | 0.00 | 86 | 1018.8 |
| 20260906201035 | 71 | 248 | 0.0 | 0.0 | 0.00 | 0.00 | 0.00 | 86 | 1018.8 |
| 20260906200534 | 71 | 248 | 0.0 | 0.0 | 0.00 | 0.00 | 0.00 | 85 | 1018.7 |
| 20260906200038 | 71 | 248 | 0.0 | 0.0 | 0.00 | 0.00 | 0.00 | 85 | 1018.8 |
| 20260906195535 | 71 | 248 | 0.0 | 0.0 | 0.00 | 0.00 | 0.00 | 84 | 1018.7 |
| 20260906195034 | 71 | 248 | 0.0 | 0.0 | 0.00 | 0.00 | 0.00 | 84 | 1018.6 |
| 20260906194534 | 71 | 248 | 0.0 | 0.0 | 0.00 | 0.00 | 0.00 | 83 | 1018.5 |
| 20260906194033 | 72 | 248 | 0.0 | 1.0 | 0.00 | 0.00 | 0.00 | 83 | 1018.4 |
| 20260906193533 | 72 | 248 | 0.0 | 2.0 | 0.00 | 0.00 | 0.00 | 82 | 1018.4 |
| 20260906193032 | 72 | 248 | 0.0 | 2.0 | 0.00 | 0.00 | 0.00 | 82 | 1018.3 |
| 20260906192532 | 73 | 248 | 1.0 | 4.0 | 0.00 | 0.00 | 0.00 | 81 | 1018.4 |
| 20260906192032 | 73 | 248 | 2.0 | 4.0 | 0.00 | 0.00 | 0.00 | 80 | 1018.3 |
| 20260906191533 | 73 | 248 | 0.0 | 3.0 | 0.00 | 0.00 | 0.00 | 81 | 1018.2 |
| 20260906191032 | 73 | 248 | 1.0 | 5.0 | 0.00 | 0.00 | 0.00 | 81 | 1018.3 |
| 20260906190531 | 73 | 248 | 2.0 | 5.0 | 0.00 | 0.00 | 0.00 | 80 | 1018.2 |
| 20260906190034 | 73 | 240 | 2.0 | 4.0 | 0.00 | 0.00 | 0.00 | 80 | 1018.2 |
| 20260906185532 | 73 | 240 | 2.0 | 5.0 | 0.00 | 0.00 | 0.00 | 80 | 1018.0 |
| 20260906185035 | 73 | 263 | 3.0 | 5.0 | 0.00 | 0.00 | 0.00 | 80 | 1017.9 |
| 20260906184536 | 73 | 265 | 1.0 | 4.0 | 0.00 | 0.00 | 0.00 | 80 | 1017.9 |
| 20260906184030 | 73 | 284 | 2.0 | 6.0 | 0.00 | 0.00 | 0.00 | 79 | 1017.8 |
| 20260906183531 | 73 | 280 | 1.0 | 6.0 | 0.00 | 0.00 | 0.00 | 80 | 1017.8 |
| 20260906183037 | 73 | 282 | 3.0 | 8.0 | 0.00 | 0.00 | 0.00 | 79 | 1017.8 |
| 20260906182529 | 74 | 262 | 4.0 | 8.0 | 0.00 | 0.00 | 0.00 | 78 | 1017.8 |
| 20260906182030 | 74 | 250 | 2.0 | 5.0 | 0.00 | 0.00 | 0.00 | 79 | 1017.7 |
| 20260906181537 | 74 | 250 | 2.0 | 7.0 | 0.00 | 0.00 | 0.00 | 78 | 1017.8 |
| 20260906181029 | 74 | 235 | 2.0 | 7.0 | 0.00 | 0.00 | 0.00 | 78 | 1017.8 |
| 20260906180529 | 74 | 277 | 2.0 | 8.0 | 0.00 | 0.00 | 0.00 | 78 | 1017.8 |
| 20260906180029 | 74 | 265 | 4.0 | 8.0 | 0.00 | 0.00 | 0.00 | 77 | 1017.9 |
| 20260906175531 | 75 | 273 | 3.0 | 9.0 | 0.00 | 0.00 | 0.00 | 76 | 1017.8 |
| 20260906175033 | 75 | 281 | 4.0 | 9.0 | 0.00 | 0.00 | 0.00 | 76 | 1017.8 |
| 20260906174528 | 75 | 276 | 6.0 | 9.0 | 0.00 | 0.00 | 0.00 | 75 | 1017.7 |
| 20260906174028 | 76 | 279 | 5.0 | 9.0 | 0.00 | 0.00 | 0.00 | 75 | 1017.7 |
| 20260906173527 | 76 | 337 | 2.0 | 10.0 | 0.00 | 0.00 | 0.00 | 76 | 1017.7 |
| 20260906173027 | 76 | 316 | 3.0 | 7.0 | 0.00 | 0.00 | 0.00 | 75 | 1017.7 |
| 20260906172529 | 76 | 278 | 3.0 | 8.0 | 0.00 | 0.00 | 0.00 | 76 | 1017.7 |
| 20260906172027 | 76 | 262 | 4.0 | 10.0 | 0.00 | 0.00 | 0.00 | 76 | 1017.7 |
| 20260906171527 | 76 | 276 | 6.0 | 10.0 | 0.00 | 0.00 | 0.00 | 75 | 1017.8 |
| 20260906171026 | 77 | 270 | 4.0 | 9.0 | 0.00 | 0.00 | 0.00 | 75 | 1017.7 |
| 20260906170526 | 76 | 286 | 4.0 | 9.0 | 0.00 | 0.00 | 0.00 | 76 | 1017.8 |
| 20260906170031 | 76 | 281 | 3.0 | 9.0 | 0.00 | 0.00 | 0.00 | 75 | 1017.8 |
| 20260906165526 | 76 | 296 | 4.0 | 11.0 | 0.00 | 0.00 | 0.00 | 75 | 1017.7 |
| 20260906165027 | 77 | 271 | 6.0 | 11.0 | 0.00 | 0.00 | 0.00 | 74 | 1017.7 |
| 20260906164525 | 77 | 247 | 6.0 | 9.0 | 0.00 | 0.00 | 0.00 | 74 | 1017.8 |
| 20260906164027 | 77 | 295 | 4.0 | 10.0 | 0.00 | 0.00 | 0.00 | 75 | 1017.6 |
| 20260906163525 | 77 | 263 | 4.0 | 12.0 | 0.00 | 0.00 | 0.00 | 76 | 1017.6 |
| 20260906163025 | 76 | 296 | 3.0 | 12.0 | 0.00 | 0.00 | 0.00 | 76 | 1017.6 |
| 20260906162525 | 76 | 246 | 6.0 | 10.0 | 0.00 | 0.00 | 0.00 | 76 | 1017.6 |
| 20260906162124 | 76 | 260 | 5.0 | 10.0 | 0.00 | 0.00 | 0.00 | 77 | 1017.6 |
| 20260906161524 | 76 | 274 | 6.0 | 9.0 | 0.00 | 0.00 | 0.00 | 76 | 1017.6 |
| 20260906161024 | 77 | 260 | 3.0 | 13.0 | 0.00 | 0.00 | 0.00 | 77 | 1017.6 |
| 20260906160524 | 76 | 297 | 4.0 | 13.0 | 0.00 | 0.00 | 0.00 | 77 | 1017.6 |
| 20260906160025 | 77 | 257 | 6.0 | 10.0 | 0.00 | 0.00 | 0.00 | 75 | 1017.6 |
| 20260906155530 | 77 | 282 | 4.0 | 9.0 | 0.00 | 0.00 | 0.00 | 76 | 1017.6 |
| 20260906155123 | 76 | 230 | 6.0 | 9.0 | 0.00 | 0.00 | 0.00 | 77 | 1017.6 |
| 20260906154522 | 76 | 298 | 4.0 | 12.0 | 0.00 | 0.00 | 0.00 | 78 | 1017.6 |
| 20260906154022 | 76 | 268 | 4.0 | 12.0 | 0.00 | 0.00 | 0.00 | 78 | 1017.7 |
| 20260906153522 | 76 | 253 | 6.0 | 11.0 | 0.00 | 0.00 | 0.00 | 78 | 1017.8 |
| 20260906153028 | 76 | 308 | 3.0 | 11.0 | 0.00 | 0.00 | 0.00 | 77 | 1017.8 |
| 20260906152522 | 77 | 257 | 6.0 | 10.0 | 0.00 | 0.00 | 0.00 | 76 | 1017.8 |
| 20260906152024 | 76 | 290 | 4.0 | 9.0 | 0.00 | 0.00 | 0.00 | 76 | 1017.9 |
| 20260906151522 | 76 | 338 | 2.0 | 8.0 | 0.00 | 0.00 | 0.00 | 78 | 1018.0 |
| 20260906151023 | 76 | 279 | 3.0 | 8.0 | 0.00 | 0.00 | 0.00 | 78 | 1018.0 |
| 20260906150523 | 76 | 257 | 3.0 | 8.0 | 0.00 | 0.00 | 0.00 | 77 | 1018.2 |
| 20260906150030 | 76 | 327 | 4.0 | 11.0 | 0.00 | 0.00 | 0.00 | 78 | 1018.1 |
| 20260906145525 | 76 | 209 | 5.0 | 11.0 | 0.00 | 0.00 | 0.00 | 78 | 1018.2 |
| 20260906145028 | 76 | 308 | 3.0 | 10.0 | 0.00 | 0.00 | 0.00 | 78 | 1018.2 |
| 20260906144521 | 77 | 275 | 5.0 | 9.0 | 0.00 | 0.00 | 0.00 | 78 | 1018.2 |
| 20260906144020 | 76 | 282 | 3.0 | 9.0 | 0.00 | 0.00 | 0.00 | 78 | 1018.1 |
| 20260906143523 | 76 | 289 | 4.0 | 10.0 | 0.00 | 0.00 | 0.00 | 79 | 1018.2 |
| 20260906143019 | 76 | 295 | 6.0 | 11.0 | 0.00 | 0.00 | 0.00 | 77 | 1018.3 |
| 20260906142521 | 77 | 265 | 6.0 | 11.0 | 0.00 | 0.00 | 0.00 | 75 | 1018.3 |
| 20260906142019 | 77 | 315 | 5.0 | 12.0 | 0.00 | 0.00 | 0.00 | 77 | 1018.3 |
| 20260906141518 | 76 | 304 | 5.0 | 12.0 | 0.00 | 0.00 | 0.00 | 75 | 1018.2 |
| 20260906141018 | 77 | 273 | 6.0 | 9.0 | 0.00 | 0.00 | 0.00 | 75 | 1018.3 |
| 20260906140521 | 77 | 265 | 6.0 | 12.0 | 0.00 | 0.00 | 0.00 | 73 | 1018.3 |
| 20260906140037 | 78 | 286 | 6.0 | 12.0 | 0.00 | 0.00 | 0.00 | 73 | 1018.3 |
| 20260906135518 | 78 | 323 | 4.0 | 8.0 | 0.00 | 0.00 | 0.00 | 72 | 1018.3 |
| 20260906135018 | 78 | 268 | 3.0 | 11.0 | 0.00 | 0.00 | 0.00 | 70 | 1018.3 |
| 20260906134516 | 78 | 273 | 6.0 | 11.0 | 0.00 | 0.00 | 0.00 | 69 | 1018.4 |
| 20260906134016 | 79 | 313 | 5.0 | 9.0 | 0.00 | 0.00 | 0.00 | 69 | 1018.4 |
| 20260906133515 | 77 | 360 | 4.0 | 10.0 | 0.00 | 0.00 | 0.00 | 70 | 1018.4 |
| 20260906133015 | 78 | 254 | 3.0 | 11.0 | 0.00 | 0.00 | 0.00 | 69 | 1018.5 |
| 20260906132516 | 77 | 244 | 5.0 | 11.0 | 0.00 | 0.00 | 0.00 | 69 | 1018.6 |
| 20260906132015 | 78 | 253 | 4.0 | 11.0 | 0.00 | 0.00 | 0.00 | 70 | 1018.7 |
| 20260906131515 | 77 | 279 | 7.0 | 11.0 | 0.00 | 0.00 | 0.00 | 71 | 1018.7 |
| 20260906131014 | 78 | 250 | 3.0 | 12.0 | 0.00 | 0.00 | 0.00 | 71 | 1018.6 |
| 20260906130514 | 78 | 252 | 5.0 | 12.0 | 0.00 | 0.00 | 0.00 | 71 | 1018.7 |
| 20260906130014 | 78 | 277 | 8.0 | 11.0 | 0.00 | 0.00 | 0.00 | 72 | 1018.6 |
| 20260906125513 | 79 | 279 | 6.0 | 10.0 | 0.00 | 0.00 | 0.00 | 71 | 1018.7 |
| 20260906125012 | 79 | 317 | 2.0 | 11.0 | 0.00 | 0.00 | 0.00 | 71 | 1018.7 |
| 20260906124512 | 79 | 329 | 5.0 | 11.0 | 0.00 | 0.00 | 0.00 | 71 | 1018.7 |
| 20260906124012 | 79 | 292 | 6.0 | 11.0 | 0.00 | 0.00 | 0.00 | 72 | 1018.6 |
| 20260906123510 | 79 | 300 | 7.0 | 11.0 | 0.00 | 0.00 | 0.00 | 70 | 1018.7 |
| 20260906123013 | 79 | 258 | 6.0 | 10.0 | 0.00 | 0.00 | 0.00 | 70 | 1018.6 |
| 20260906122509 | 79 | 275 | 4.0 | 9.0 | 0.00 | 0.00 | 0.00 | 70 | 1018.6 |
| 20260906122012 | 79 | 284 | 6.0 | 11.0 | 0.00 | 0.00 | 0.00 | 70 | 1018.7 |
| 20260906121506 | 79 | 255 | 6.0 | 11.0 | 0.00 | 0.00 | 0.00 | 72 | 1018.7 |
| 20260906121006 | 78 | 281 | 3.0 | 8.0 | 0.00 | 0.00 | 0.00 | 73 | 1018.8 |
| 20260906120505 | 78 | 242 | 3.0 | 8.0 | 0.00 | 0.00 | 0.00 | 70 | 1018.8 |
| 20260906120004 | 78 | 256 | 4.0 | 8.0 | 0.00 | 0.00 | 0.00 | 71 | 1018.9 |
| 20260906115502 | 78 | 248 | 4.0 | 8.0 | 0.00 | 0.00 | 0.00 | 71 | 1018.9 |
| 20260906115001 | 78 | 232 | 5.0 | 8.0 | 0.00 | 0.00 | 0.00 | 72 | 1018.9 |
| 20260906114600 | 78 | 259 | 3.0 | 8.0 | 0.00 | 0.00 | 0.00 | 72 | 1019.0 |
| 20260906114102 | 78 | 295 | 3.0 | 8.0 | 0.00 | 0.00 | 0.00 | 73 | 1019.0 |
| 20260906113556 | 77 | 271 | 4.0 | 8.0 | 0.00 | 0.00 | 0.00 | 72 | 1019.1 |
| 20260906113101 | 78 | 268 | 5.0 | 8.0 | 0.00 | 0.00 | 0.00 | 72 | 1019.1 |
| 20260906112554 | 78 | 297 | 4.0 | 8.0 | 0.00 | 0.00 | 0.00 | 71 | 1019.0 |
| 20260906112054 | 79 | 259 | 2.0 | 5.0 | 0.00 | 0.00 | 0.00 | 70 | 1019.0 |
| 20260906111556 | 78 | 296 | 2.0 | 6.0 | 0.00 | 0.00 | 0.00 | 71 | 1019.0 |
| 20260906111054 | 78 | 321 | 3.0 | 6.0 | 0.00 | 0.00 | 0.00 | 71 | 1019.0 |
| 20260906110552 | 77 | 307 | 0.0 | 6.0 | 0.00 | 0.00 | 0.00 | 72 | 1019.0 |
| 20260906110058 | 77 | 299 | 2.0 | 7.0 | 0.00 | 0.00 | 0.00 | 72 | 1019.0 |
| 20260906105550 | 77 | 317 | 2.0 | 5.0 | 0.00 | 0.00 | 0.00 | 72 | 1019.0 |
| 20260906105048 | 77 | 11 | 3.0 | 5.0 | 0.00 | 0.00 | 0.00 | 73 | 1019.1 |
| 20260906104547 | 77 | 336 | 2.0 | 5.0 | 0.00 | 0.00 | 0.00 | 73 | 1019.1 |
| 20260906104047 | 76 | 325 | 2.0 | 4.0 | 0.00 | 0.00 | 0.00 | 74 | 1019.0 |
| 20260906103549 | 76 | 304 | 1.0 | 5.0 | 0.00 | 0.00 | 0.00 | 75 | 1019.0 |
| 20260906103046 | 75 | 309 | 2.0 | 5.0 | 0.00 | 0.00 | 0.00 | 76 | 1019.1 |
| 20260906102546 | 75 | 311 | 2.0 | 6.0 | 0.00 | 0.00 | 0.00 | 76 | 1019.1 |
| 20260906102043 | 75 | 339 | 2.0 | 7.0 | 0.00 | 0.00 | 0.00 | 76 | 1019.0 |
| 20260906101542 | 75 | 284 | 3.0 | 7.0 | 0.00 | 0.00 | 0.00 | 75 | 1019.0 |
| 20260906101040 | 76 | 292 | 2.0 | 4.0 | 0.00 | 0.00 | 0.00 | 75 | 1018.9 |
| 20260906100539 | 76 | 334 | 1.0 | 4.0 | 0.00 | 0.00 | 0.00 | 75 | 1018.9 |
| 20260906100039 | 76 | 311 | 1.0 | 6.0 | 0.00 | 0.00 | 0.00 | 74 | 1018.8 |
| 20260906095539 | 76 | 311 | 3.0 | 6.0 | 0.00 | 0.00 | 0.00 | 73 | 1018.8 |
| 20260906095037 | 76 | 265 | 1.0 | 4.0 | 0.00 | 0.00 | 0.00 | 73 | 1018.7 |
| 20260906094536 | 76 | 271 | 1.0 | 4.0 | 0.00 | 0.00 | 0.00 | 71 | 1018.5 |
| 20260906094035 | 75 | 274 | 1.0 | 4.0 | 0.00 | 0.00 | 0.00 | 70 | 1018.4 |
| 20260906093536 | 75 | 264 | 1.0 | 4.0 | 0.00 | 0.00 | 0.00 | 71 | 1018.4 |
| 20260906093047 | 74 | 243 | 2.0 | 4.0 | 0.00 | 0.00 | 0.00 | 71 | 1018.4 |
| 20260906092535 | 74 | 244 | 2.0 | 5.0 | 0.00 | 0.00 | 0.00 | 72 | 1018.4 |
| 20260906092035 | 73 | 259 | 3.0 | 5.0 | 0.00 | 0.00 | 0.00 | 74 | 1018.4 |
| 20260906091533 | 73 | 219 | 3.0 | 5.0 | 0.00 | 0.00 | 0.00 | 76 | 1018.3 |
| 20260906091033 | 73 | 259 | 3.0 | 6.0 | 0.00 | 0.00 | 0.00 | 77 | 1018.2 |
| 20260906090530 | 73 | 248 | 2.0 | 4.0 | 0.00 | 0.00 | 0.00 | 77 | 1018.1 |
| 20260906090042 | 73 | 232 | 0.0 | 4.0 | 0.00 | 0.00 | 0.00 | 78 | 1018.0 |
| 20260906085528 | 73 | 337 | 1.0 | 4.0 | 0.00 | 0.00 | 0.00 | 78 | 1017.9 |
| 20260906085028 | 72 | 337 | 1.0 | 2.0 | 0.00 | 0.00 | 0.00 | 79 | 1017.8 |
| 20260906084528 | 72 | 337 | 0.0 | 1.0 | 0.00 | 0.00 | 0.00 | 79 | 1017.8 |
| 20260906084022 | 71 | 337 | 0.0 | 5.0 | 0.00 | 0.00 | 0.00 | 78 | 1018.0 |
| 20260906083521 | 71 | 337 | 1.0 | 5.0 | 0.00 | 0.00 | 0.00 | 78 | 1017.9 |
| 20260906083031 | 71 | 113 | 3.0 | 6.0 | 0.00 | 0.00 | 0.00 | 78 | 1017.8 |
| 20260906082518 | 72 | 42 | 0.0 | 3.0 | 0.00 | 0.00 | 0.00 | 78 | 1017.9 |
| 20260906082017 | 71 | 42 | 1.0 | 3.0 | 0.00 | 0.00 | 0.00 | 78 | 1017.9 |
| 20260906081517 | 71 | 59 | 0.0 | 2.0 | 0.00 | 0.00 | 0.00 | 78 | 1018.0 |
| 20260906081015 | 71 | 44 | 0.0 | 3.0 | 0.00 | 0.00 | 0.00 | 78 | 1018.0 |
| 20260906080513 | 70 | 44 | 0.0 | 4.0 | 0.00 | 0.00 | 0.00 | 77 | 1018.0 |
| 20260906080011 | 70 | 46 | 1.0 | 4.0 | 0.00 | 0.00 | 0.00 | 76 | 1017.9 |
| 20260906075509 | 69 | 69 | 0.0 | 5.0 | 0.00 | 0.00 | 0.00 | 75 | 1017.9 |
| 20260906075008 | 69 | 71 | 2.0 | 5.0 | 0.00 | 0.00 | 0.00 | 75 | 1017.8 |
| 20260906074519 | 69 | 68 | 1.0 | 5.0 | 0.00 | 0.00 | 0.00 | 73 | 1017.7 |
| 20260906074004 | 70 | 68 | 2.0 | 4.0 | 0.00 | 0.00 | 0.00 | 67 | 1017.7 |
| 20260906073503 | 70 | 45 | 2.0 | 3.0 | 0.00 | 0.00 | 0.00 | 61 | 1017.6 |
| 20260906073002 | 70 | 48 | 1.0 | 4.0 | 0.00 | 0.00 | 0.00 | 59 | 1017.5 |
| 20260906072502 | 70 | 78 | 1.0 | 5.0 | 0.00 | 0.00 | 0.00 | 57 | 1017.5 |
| 20260906072001 | 71 | 70 | 2.0 | 6.0 | 0.00 | 0.00 | 0.00 | 54 | 1017.4 |
| 20260906071600 | 70 | 73 | 3.0 | 6.0 | 0.00 | 0.00 | 0.00 | 55 | 1017.4 |
| 20260906071100 | 70 | 70 | 4.0 | 6.0 | 0.00 | 0.00 | 0.00 | 60 | 1017.3 |
| 20260906070604 | 70 | 106 | 5.0 | 6.0 | 0.00 | 0.00 | 0.00 | 64 | 1017.3 |
| 20260906070100 | 71 | 66 | 2.0 | 5.0 | 0.00 | 0.00 | 0.00 | 59 | 1017.3 |
| 20260906065600 | 72 | 65 | 3.0 | 5.0 | 0.00 | 0.00 | 0.00 | 52 | 1017.1 |
| 20260906065059 | 73 | 19 | 2.0 | 7.0 | 0.00 | 0.00 | 0.00 | 43 | 1017.1 |
| 20260906064558 | 74 | 195 | 4.0 | 7.0 | 0.00 | 0.00 | 0.00 | 42 | 1016.9 |
| 20260906064058 | 74 | 160 | 4.0 | 9.0 | 0.00 | 0.00 | 0.00 | 45 | 1016.9 |
| 20260906063557 | 72 | 168 | 6.0 | 9.0 | 0.00 | 0.00 | 0.00 | 49 | 1016.9 |
| 20260906063059 | 69 | 132 | 3.0 | 7.0 | 0.00 | 0.00 | 0.00 | 68 | 1016.7 |
| 20260906062557 | 68 | 113 | 4.0 | 7.0 | 0.00 | 0.00 | 0.00 | 79 | 1016.6 |
| 20260906062056 | 67 | 150 | 2.0 | 8.0 | 0.00 | 0.00 | 0.00 | 86 | 1016.6 |
| 20260906061604 | 66 | 132 | 5.0 | 8.0 | 0.00 | 0.00 | 0.00 | 88 | 1016.6 |
| 20260906061055 | 66 | 101 | 4.0 | 7.0 | 0.00 | 0.00 | 0.00 | 90 | 1016.7 |
| 20260906060558 | 67 | 279 | 2.0 | 8.0 | 0.00 | 0.00 | 0.00 | 90 | 1016.7 |
| 20260906060054 | 67 | 308 | 1.0 | 5.0 | 0.00 | 0.00 | 0.00 | 90 | 1016.6 |
| 20260906055553 | 67 | 308 | 0.0 | 3.0 | 0.00 | 0.00 | 0.00 | 90 | 1016.7 |
| 20260906055058 | 67 | 308 | 0.0 | 2.0 | 0.00 | 0.00 | 0.00 | 90 | 1016.6 |
| 20260906054601 | 67 | 308 | 0.0 | 4.0 | 0.00 | 0.00 | 0.00 | 90 | 1016.6 |
| 20260906054054 | 67 | 308 | 0.0 | 7.0 | 0.00 | 0.00 | 0.00 | 89 | 1016.6 |
| 20260906053551 | 67 | 117 | 6.0 | 7.0 | 0.00 | 0.00 | 0.00 | 89 | 1016.5 |
| 20260906053151 | 67 | 337 | 1.0 | 4.0 | 0.00 | 0.00 | 0.00 | 88 | 1016.7 |
| 20260906052551 | 67 | 103 | 1.0 | 6.0 | 0.00 | 0.00 | 0.00 | 88 | 1016.7 |
| 20260906052050 | 67 | 109 | 3.0 | 6.0 | 0.00 | 0.00 | 0.00 | 87 | 1016.7 |
| 20260906051549 | 67 | 98 | 2.0 | 5.0 | 0.00 | 0.00 | 0.00 | 86 | 1016.7 |
| 20260906051051 | 67 | 101 | 2.0 | 4.0 | 0.00 | 0.00 | 0.00 | 85 | 1016.8 |
| 20260906050550 | 67 | 49 | 1.0 | 3.0 | 0.00 | 0.00 | 0.00 | 84 | 1016.7 |
| 20260906050048 | 67 | 63 | 1.0 | 3.0 | 0.00 | 0.00 | 0.00 | 84 | 1016.7 |
| 20260906045551 | 67 | 63 | 0.0 | 3.0 | 0.00 | 0.00 | 0.00 | 83 | 1016.8 |
| 20260906045045 | 67 | 53 | 0.0 | 2.0 | 0.00 | 0.00 | 0.00 | 83 | 1016.7 |
| 20260906044544 | 68 | 71 | 0.0 | 2.0 | 0.00 | 0.00 | 0.00 | 82 | 1016.8 |
| 20260906044043 | 68 | 9 | 0.0 | 2.0 | 0.00 | 0.00 | 0.00 | 81 | 1016.8 |
| 20260906043543 | 68 | 9 | 0.0 | 2.0 | 0.00 | 0.00 | 0.00 | 81 | 1016.7 |
| 20260906043043 | 68 | 9 | 1.0 | 3.0 | 0.00 | 0.00 | 0.00 | 81 | 1016.8 |
| 20260906042543 | 68 | 182 | 1.0 | 5.0 | 0.00 | 0.00 | 0.00 | 81 | 1016.6 |
| 20260906042043 | 68 | 211 | 2.0 | 6.0 | 0.00 | 0.00 | 0.00 | 80 | 1016.5 |
| 20260906041551 | 68 | 47 | 2.0 | 6.0 | 0.00 | 0.00 | 0.00 | 82 | 1016.4 |
| 20260906041041 | 68 | 40 | 2.0 | 5.0 | 0.00 | 0.00 | 0.00 | 81 | 1016.5 |
| 20260906040541 | 68 | 207 | 2.0 | 4.0 | 0.00 | 0.00 | 0.00 | 81 | 1016.4 |
| 20260906040041 | 69 | 119 | 1.0 | 6.0 | 0.00 | 0.00 | 0.00 | 82 | 1016.5 |
| 20260906035541 | 69 | 121 | 4.0 | 6.0 | 0.00 | 0.00 | 0.00 | 81 | 1016.4 |
| 20260906035039 | 69 | 261 | 0.0 | 3.0 | 0.00 | 0.00 | 0.00 | 80 | 1016.5 |
| 20260906034543 | 69 | 153 | 2.0 | 4.0 | 0.00 | 0.00 | 0.00 | 80 | 1016.6 |
| 20260906034036 | 69 | 68 | 2.0 | 4.0 | 0.00 | 0.00 | 0.00 | 79 | 1016.6 |
| 20260906033536 | 69 | 49 | 1.0 | 7.0 | 0.00 | 0.00 | 0.00 | 77 | 1016.7 |
| 20260906033036 | 70 | 107 | 4.0 | 7.0 | 0.00 | 0.00 | 0.00 | 77 | 1016.7 |
| 20260906032532 | 71 | 314 | 0.0 | 2.0 | 0.00 | 0.00 | 0.00 | 75 | 1016.7 |
| 20260906032031 | 71 | 314 | 0.0 | 2.0 | 0.00 | 0.00 | 0.00 | 73 | 1016.8 |
| 20260906031535 | 71 | 314 | 0.0 | 2.0 | 0.00 | 0.00 | 0.00 | 71 | 1016.9 |
| 20260906031028 | 72 | 314 | 0.0 | 5.0 | 0.00 | 0.00 | 0.00 | 65 | 1016.9 |
| 20260906030527 | 73 | 53 | 1.0 | 5.0 | 0.00 | 0.00 | 0.00 | 62 | 1016.9 |
| 20260906030033 | 74 | 320 | 1.0 | 4.0 | 0.00 | 0.00 | 0.00 | 61 | 1016.8 |
| 20260906025525 | 76 | 72 | 2.0 | 6.0 | 0.00 | 0.00 | 0.00 | 56 | 1016.9 |
| 20260906025025 | 78 | 320 | 2.0 | 8.0 | 0.00 | 0.00 | 0.00 | 31 | 1016.8 |
| 20260906024523 | 78 | 26 | 2.0 | 10.0 | 0.00 | 0.00 | 0.00 | 28 | 1016.8 |
| 20260906024023 | 78 | 77 | 4.0 | 8.0 | 0.00 | 0.00 | 0.00 | 30 | 1016.9 |
| 20260906023523 | 77 | 117 | 5.0 | 8.0 | 0.00 | 0.00 | 0.00 | 26 | 1016.9 |
| 20260906023024 | 74 | 84 | 4.0 | 6.0 | 0.00 | 0.00 | 0.00 | 36 | 1017.1 |
| 20260906022521 | 73 | 113 | 4.0 | 7.0 | 0.00 | 0.00 | 0.00 | 50 | 1017.1 |
| 20260906022022 | 75 | 360 | 1.0 | 4.0 | 0.00 | 0.00 | 0.00 | 52 | 1017.3 |
| 20260906021518 | 75 | 65 | 2.0 | 4.0 | 0.00 | 0.00 | 0.00 | 41 | 1017.3 |
| 20260906021017 | 76 | 73 | 2.0 | 5.0 | 0.00 | 0.00 | 0.00 | 34 | 1017.4 |
| 20260906020517 | 77 | 35 | 3.0 | 5.0 | 0.00 | 0.00 | 0.00 | 34 | 1017.5 |
| 20260906020017 | 78 | 32 | 2.0 | 8.0 | 0.00 | 0.00 | 0.00 | 29 | 1017.5 |
| 20260906015520 | 78 | 74 | 5.0 | 8.0 | 0.00 | 0.00 | 0.00 | 28 | 1017.5 |
| 20260906015015 | 79 | 42 | 1.0 | 5.0 | 0.00 | 0.00 | 0.00 | 34 | 1017.6 |
| 20260906014534 | 79 | 32 | 0.0 | 4.0 | 0.00 | 0.00 | 0.00 | 26 | 1017.6 |
| 20260906014014 | 80 | 32 | 2.0 | 5.0 | 0.00 | 0.00 | 0.00 | 28 | 1017.7 |
| 20260906013517 | 80 | 107 | 2.0 | 7.0 | 0.00 | 0.00 | 0.00 | 21 | 1017.7 |
| 20260906013021 | 79 | 126 | 3.0 | 7.0 | 0.00 | 0.00 | 0.00 | 24 | 1017.8 |
| 20260906012511 | 76 | 113 | 5.0 | 7.0 | 0.00 | 0.00 | 0.00 | 29 | 1017.9 |
| 20260906012011 | 76 | 202 | 2.0 | 6.0 | 0.00 | 0.00 | 0.00 | 39 | 1017.8 |
| 20260906011510 | 79 | 120 | 2.0 | 8.0 | 0.00 | 0.00 | 0.00 | 45 | 1017.9 |
| 20260906011010 | 81 | 119 | 5.0 | 8.0 | 0.00 | 0.00 | 0.00 | 22 | 1017.9 |
| 20260906010512 | 80 | 122 | 2.0 | 8.0 | 0.00 | 0.00 | 0.00 | 24 | 1017.9 |
| 20260906010030 | 80 | 150 | 4.0 | 8.0 | 0.00 | 0.00 | 0.00 | 24 | 1018.0 |
| 20260906005507 | 79 | 116 | 4.0 | 7.0 | 0.00 | 0.00 | 0.00 | 29 | 1018.0 |
| 20260906005011 | 82 | 31 | 1.0 | 10.0 | 0.00 | 0.00 | 0.00 | 33 | 1018.2 |
| 20260906004507 | 82 | 114 | 6.0 | 10.0 | 0.00 | 0.00 | 0.00 | 21 | 1018.2 |
| 20260906004006 | 82 | 142 | 2.0 | 13.0 | 0.00 | 0.00 | 0.00 | 22 | 1018.2 |
| 20260906003506 | 82 | 120 | 10.0 | 13.0 | 0.00 | 0.00 | 0.00 | 22 | 1018.1 |
| 20260906003005 | 81 | 131 | 8.0 | 11.0 | 0.00 | 0.00 | 0.00 | 23 | 1018.1 |
| 20260906002504 | 81 | 107 | 8.0 | 11.0 | 0.00 | 0.00 | 0.00 | 23 | 1018.1 |
| 20260906002006 | 81 | 121 | 7.0 | 11.0 | 0.00 | 0.00 | 0.00 | 24 | 1018.2 |
| 20260906001503 | 82 | 338 | 2.0 | 8.0 | 0.00 | 0.00 | 0.00 | 29 | 1018.3 |
| 20260906001002 | 82 | 111 | 7.0 | 8.0 | 0.00 | 0.00 | 0.00 | 22 | 1018.3 |
| 20260906000601 | 82 | 135 | 5.0 | 9.0 | 0.00 | 0.00 | 0.00 | 22 | 1018.3 |
| 20260906000100 | 81 | 108 | 8.0 | 9.0 | 0.00 | 0.00 | 0.00 | 23 | 1018.3 |
| 20260905235559 | 81 | 113 | 6.0 | 10.0 | 0.00 | 0.00 | 0.00 | 24 | 1018.4 |
| 20260905235058 | 81 | 101 | 7.0 | 9.0 | 0.00 | 0.00 | 0.00 | 24 | 1018.4 |
| 20260905234557 | 80 | 96 | 4.0 | 8.0 | 0.00 | 0.00 | 0.00 | 25 | 1018.4 |
| 20260905234054 | 79 | 105 | 1.0 | 3.0 | 0.00 | 0.00 | 0.00 | 28 | 1018.5 |
| 20260905233554 | 79 | 105 | 1.0 | 3.0 | 0.00 | 0.00 | 0.00 | 28 | 1018.5 |
| 20260905233054 | 79 | 105 | 2.0 | 3.0 | 0.00 | 0.00 | 0.00 | 32 | 1018.5 |
| 20260905232556 | 79 | 105 | 2.0 | 3.0 | 0.00 | 0.00 | 0.00 | 31 | 1018.6 |
| 20260905232052 | 79 | 105 | 2.0 | 6.0 | 0.00 | 0.00 | 0.00 | 31 | 1018.6 |